#timestamp,LO_Frequency,Hit,StdDev 
1508724015.3,286046997.3,N
1508724035.1,286046996.5,N
1508724055.9,286046996.6,N
1508724075.7,286046993.3,N
1508724095.5,286046991.3,N
1508724115.4,286046985.7,Y
1508724135.2,286046987.5,P
1508724155.1,286046984.3,P
1508724156.0,286046984.3,N
1508724175.8,286046982.3,Y
1508724195.6,286046994.7,P
1508724215.5,286046992.9,N
1508724235.3,286046991.2,P
1508724255.1,286046987.9,Y
1508724275.9,286046996.2,P
1508724295.7,286046995.3,N
1508724315.5,286046993.3,P
1508724335.4,286046993.5,Y
1508724355.2,286047000.6,P
1508724375.1,286047004.0,N
1508724376.0,286047004.0,N
1508724395.8,286047003.9,N
1508724415.6,286047004.3,N
1508724435.5,286047003.5,N
1508724455.3,286047003.3,N
1508724475.1,286047003.1,N
1508724495.9,286047002.3,N
1508724515.7,286047001.0,N
1508724535.5,286046998.2,N
1508724555.4,286047001.4,N
1508724575.2,286047004.5,N
1508724595.0,286047006.3,N
1508724595.9,286047006.3,N
1508724615.8,286047004.9,N
1508724635.6,286047006.5,N
1508724655.4,286047008.9,N
1508724675.3,286047006.6,N
1508724695.1,286047008.2,N
1508724715.8,286047010.4,Y
1508724735.7,286047004.5,P
1508724755.5,286047006.0,P
1508724775.3,286047006.1,P
1508724795.2,286047007.8,Y
1508724815.0,286047004.7,P
1508724815.9,286047004.7,P
1508724835.8,286047008.3,P
1508724855.6,286047010.0,Y
1508724875.4,286047005.4,P
1508724895.3,286047006.9,P
1508724915.1,286047008.5,P
1508724935.9,286047006.6,Y
1508724955.7,286047000.1,P
1508724975.5,286047001.3,N
1508724995.4,286047001.4,N
1508725015.2,286047001.3,N
1508725035.0,286047003.6,N
1508725035.9,286047003.6,N
1508725055.8,286047006.4,Y
1508725075.6,286047003.1,P
1508725095.4,286047004.1,P
1508725115.3,286047001.8,N
1508725135.1,286047005.5,Y
1508725155.8,286046995.4,P
1508725175.7,286046999.5,N
1508725195.5,286047001.5,N
1508725215.3,286047004.0,N
1508725235.2,286047002.0,N
1508725255.0,286047001.0,N
1508725255.9,286047001.0,N
1508725275.8,286046996.5,N
1508725295.6,286046996.9,N
1508725315.4,286046998.7,N
1508725335.3,286047002.5,N
1508725355.1,286046999.8,N
1508725356.0,286046999.8,N
1508725375.8,286047001.8,N
1508725395.7,286047000.7,N
1508725415.5,286047003.4,N
1508725435.3,286047003.4,N
1508725455.2,286047004.3,N
1508725475.9,286047002.6,N
1508725495.7,286047000.6,N
1508725515.6,286046999.2,N
1508725535.4,286046995.7,N
1508725555.2,286046995.4,N
1508725575.1,286046996.0,N
1508725576.0,286046996.0,N
1508725595.8,286046994.4,N
1508725615.6,286046989.8,Y
1508725635.5,286046988.9,P
1508725655.3,286046990.1,N
1508725675.1,286046993.2,N
1508725695.9,286046992.0,N
1508725715.7,286046997.2,N
1508725735.5,286046994.2,N
1508725755.4,286046994.4,N
1508725775.2,286046991.0,N
1508725795.1,286046990.1,Y
1508725796.0,286046990.1,P
1508725815.8,286047000.7,N
1508725835.6,286046998.1,N
1508725855.5,286046999.5,N
1508725875.3,286046997.4,N
1508725895.1,286046998.2,N
1508725915.9,286046998.8,N
1508725935.7,286046999.0,N
1508725955.5,286046999.4,N
1508725975.4,286047001.0,N
1508725995.2,286046998.5,N
1508726015.0,286046999.1,N
1508726015.9,286046999.1,N
1508726035.8,286046997.3,N
1508726055.6,286046999.6,N
1508726075.4,286046995.0,N
1508726095.3,286046995.1,N
1508726115.1,286046996.2,N
1508726135.8,286046993.8,N
1508726155.7,286046993.0,N
1508726175.5,286046993.5,N
1508726195.3,286046999.6,N
1508726215.2,286046999.0,N
1508726235.0,286047002.7,N
1508726235.9,286047002.7,N
1508726255.8,286046999.0,N
1508726275.6,286046997.3,N
1508726295.4,286047000.8,N
1508726315.3,286047003.0,N
1508726335.1,286047005.8,N
1508726336.0,286047005.8,N
1508726355.8,286047002.6,N
1508726375.7,286046999.9,N
1508726395.5,286047001.1,N
1508726415.3,286047000.5,N
1508726435.2,286046997.8,N
1508726455.9,286046997.9,N
1508726475.7,286046995.5,N
1508726495.6,286046991.9,N
1508726515.4,286046996.4,N
1508726535.2,286046993.1,N
1508726555.1,286046994.3,N
1508726556.0,286046994.3,N
1508726575.8,286046996.5,N
1508726595.6,286046997.1,N
1508726615.5,286046996.1,N
1508726635.3,286046994.2,N
1508726655.1,286046993.7,N
1508726675.9,286046995.2,N
1508726695.7,286046999.1,N
1508726715.5,286046996.5,N
1508726735.4,286046996.8,N
1508726755.2,286046999.6,N
1508726775.1,286046998.6,N
1508726776.0,286046998.6,N
1508726795.8,286046999.8,N
1508726815.6,286046997.6,N
1508726835.5,286046995.7,N
1508726855.3,286046993.9,N
1508726875.1,286046992.5,N
1508726895.9,286046992.4,N
1508726915.7,286046994.8,N
1508726935.5,286046990.1,Y
1508726955.4,286046999.9,P
1508726975.2,286047004.8,N
1508726995.0,286047001.7,N
1508726995.9,286047001.7,N
1508727015.8,286047001.1,N
1508727035.6,286047001.9,N
1508727055.4,286047005.7,N
1508727075.3,286047003.3,N
1508727095.1,286047001.5,N
1508727115.8,286047001.0,N
1508727135.7,286047000.4,N
1508727155.5,286047003.0,N
1508727175.3,286047001.9,N
1508727195.2,286047002.0,N
1508727215.0,286047002.8,N
1508727215.9,286047002.8,N
1508727235.7,286047005.1,N
1508727255.6,286047004.8,N
1508727275.4,286047004.8,N
1508727295.2,286047006.3,N
1508727315.1,286047004.5,N
1508727316.0,286047004.5,N
1508727335.8,286047007.0,Y
1508727355.7,286047006.1,P
1508727375.5,286047005.7,P
1508727395.3,286047004.9,P
1508727415.2,286047005.7,Y
1508727435.0,286047001.2,P
1508727435.9,286047001.2,N
1508727455.7,286046998.8,N
1508727475.6,286047000.8,N
1508727495.4,286047000.5,N
1508727515.2,286046998.1,N
1508727535.1,286046996.5,N
1508727536.0,286046996.5,N
1508727555.8,286046995.1,N
1508727575.7,286046997.6,N
1508727595.5,286046997.5,N
